Location: Unspecified
(0.0000°N, 0.0000°E)
Time: 19:46:52
(UTC+00:00)

Nadezhda 6 - Pass Details

Date: 16 June 2023
Orbit: 658 x 676 km, 97.8° (Epoch: 24 September)

Event Time Altitude Azimuth Distance (km) Brightness Sun altitude
Rises 18:27:59 0° 182° (S) 3,000 8.9 -6.2°
Reaches altitude 10° 18:30:19 10° 190° (S) 2,088 8.1 -6.8°
Maximum altitude 18:34:34 39° 258° (WSW) 1,005 7.2 -7.8°
Drops below altitude 10° 18:38:49 10° 327° (NNW) 2,091 9.2 -8.7°
Sets 18:41:10 0° 335° (NNW) 3,005 9.9 -9.3°
